[[{"header":{"parameterUnit":"m.s-1","parameterCategory":1,"la1":30.2991,"la2":30.254,"lo1":-89.0895,"lo2":-89.0444,"dy":0.0017,"dx":0.0017,"nx":28,"ny":28,"refTime":"2024-02-22T09:00:00:Z","depth":0,"parameterNumber":2,"parameterNumberName":"U-component_of_WINDS"},"data":[0,0,0,0,0,0,0,0,0,0,0,0,0,0,0,0,0,0,0,0,0,0,0,0,0,0,0,0,0,0,0,0,0,0,0,0,0,0,0,0,0,0,0,0,0,0,0,0,0,0,0,0,0,0,0,0,0,0,-1.149,-1.149,0,-1.153,-1.153,-1.1531,-1.1542,-1.1541,-1.1541,-1.1541,-1.1586,-1.1587,-1.1588,0,0,0,0,0,0,0,0,0,0,0,0,0,-1.1426,-1.1427,-1.1489,-1.149,-1.149,-1.153,-1.153,-1.1531,-1.1542,-1.1541,-1.1541,-1.1541,-1.1585,-1.1587,-1.1589,0,0,0,0,0,0,0,0,0,0,0,0,0,-1.1458,-1.1427,-1.1489,-1.15,-1.1502,-1.153,-1.153,-1.1531,-1.1542,-1.1541,-1.1541,-1.1541,-1.1585,-1.1587,-1.1589,-1.161,0,0,-1.1595,-1.1596,0,0,0,0,0,0,0,0,-1.1457,-1.1461,-1.1498,-1.15,-1.1501,-1.153,-1.1524,-1.1558,-1.1542,-1.1527,-1.1541,-1.154,-1.1568,-1.1571,-1.158,-1.1612,-1.1614,-1.1596,-1.1597,-1.1598,-1.1598,0,0,0,0,0,0,0,-1.1454,-1.1459,-1.1506,-1.1499,-1.1501,-1.1505,-1.1509,-1.1531,-1.1549,-1.1528,-1.1529,-1.1533,-1.1569,-1.1578,-1.1581,-1.1614,-1.1595,-1.1597,-1.1599,-1.16,-1.1666,-1.1667,0,0,0,0,0,0,-1.145,-1.1457,-1.1504,-1.1507,-1.1477,-1.1506,-1.1511,-1.1521,-1.1549,-1.1552,-1.1534,-1.1534,-1.1574,-1.1578,-1.1583,-1.1609,-1.1598,-1.16,-1.1601,-1.1666,-1.1666,-1.1667,0,0,0,0,0,0,-1.1448,-1.1454,-1.1503,-1.1482,-1.1489,-1.1508,-1.1519,-1.1522,-1.1531,-1.1553,-1.1557,-1.1539,-1.1574,-1.158,-1.1603,-1.161,-1.1601,-1.1603,-1.1665,-1.1666,-1.1666,-1.1661,0,0,0,0,0,0,-1.1446,-1.1453,-1.146,-1.1482,-1.149,-1.1521,-1.152,-1.1523,-1.1535,-1.1535,-1.1559,-1.1563,-1.1574,-1.1599,-1.1605,-1.1613,-1.1604,-1.1664,-1.1665,-1.1666,-1.1661,-1.1661,-1.1662,0,0,0,0,0,-1.1444,-1.1458,-1.146,-1.1466,-1.1499,-1.1521,-1.1526,-1.1537,-1.1535,-1.1543,-1.1557,-1.1562,-1.1609,-1.1602,-1.1608,-1.1617,-1.1664,-1.1665,-1.1666,-1.166,-1.1661,-1.1662,0,0,0,0,0,0,-1.1437,-1.1461,-1.1464,-1.1485,-1.1501,-1.1523,-1.1533,-1.1538,-1.1556,-1.1556,-1.1571,-1.1576,-1.1598,-1.161,-1.1602,-1.1639,-1.1637,-1.1639,-1.163,-1.1631,-1.1632,-1.1629,-1.1606,0,0,0,0,0,-1.1438,-1.1453,-1.1473,-1.149,-1.1498,-1.1514,-1.1524,-1.1532,-1.1549,-1.1557,-1.1572,-1.159,-1.1609,-1.1621,-1.1639,-1.1663,-1.1669,-1.1672,-1.1673,-1.1674,-1.1675,-1.1689,-1.1691,-1.167,-1.167,-1.167,0,0,-1.144,-1.1455,-1.1463,-1.1489,-1.1502,-1.1518,-1.152,-1.1537,-1.1549,-1.156,-1.1582,-1.1594,-1.1615,-1.1639,-1.165,-1.1649,-1.1683,-1.1675,-1.1675,-1.1677,-1.1691,-1.1692,-1.1694,-1.1671,-1.1671,-1.1671,0,0,-1.1451,-1.1464,-1.1479,-1.1492,-1.1512,-1.1523,-1.1527,-1.1548,-1.1556,-1.1579,-1.1587,-1.1603,-1.1635,-1.165,-1.1661,-1.168,-1.1685,-1.1685,-1.169,-1.1703,-1.1704,-1.1706,-1.1713,-1.1715,-1.1687,-1.1687,-1.1687,0,-1.1452,-1.1475,-1.1487,-1.1503,-1.1515,-1.1524,-1.154,-1.1553,-1.1578,-1.1586,-1.1585,-1.1626,-1.1641,-1.1668,-1.1672,-1.1681,-1.1687,-1.1682,-1.1703,-1.1705,-1.1706,-1.1713,-1.1715,-1.1687,-1.1687,-1.1687,-1.1687,0,-1.1475,-1.1491,-1.1501,-1.1524,-1.1537,-1.1553,-1.1569,-1.158,-1.1587,-1.1599,-1.1622,-1.1641,-1.1663,-1.167,-1.1678,-1.1699,-1.1698,-1.17,-1.1698,-1.1708,-1.1714,-1.1717,-1.1687,-1.1687,-1.1687,-1.1687,0,0,-1.1482,-1.1511,-1.1515,-1.1525,-1.1548,-1.1562,-1.158,-1.16,-1.161,-1.1628,-1.1644,-1.1671,-1.1673,-1.1686,-1.1695,-1.1707,-1.1721,-1.1708,-1.1709,-1.1709,-1.1746,-1.1744,-1.1746,-1.1725,-1.1725,-1.1726,-1.1744,0,-1.1497,-1.1526,-1.1538,-1.1563,-1.1579,-1.1588,-1.1604,-1.162,-1.1632,-1.1648,-1.1661,-1.168,-1.1681,-1.1689,-1.1701,-1.1716,-1.1728,-1.1715,-1.174,-1.1741,-1.1734,-1.1749,-1.1747,-1.1763,-1.1746,-1.1747,-1.1747,0,-1.1517,-1.1533,-1.156,-1.1581,-1.1588,-1.1601,-1.1622,-1.1637,-1.1656,-1.1664,-1.1679,-1.1688,-1.1708,-1.1705,-1.1733,-1.1724,-1.1736,-1.1745,-1.1746,-1.1748,-1.1744,-1.1752,-1.1769,-1.1771,-1.1751,-1.1751,-1.1751,0,-1.152,-1.1549,-1.1568,-1.1577,-1.1602,-1.1612,-1.1623,-1.1642,-1.1654,-1.1672,-1.168,-1.1701,-1.1713,-1.173,-1.1744,-1.1741,-1.1772,-1.177,-1.1779,-1.1779,-1.1785,-1.1784,-1.1803,-1.1793,-1.1793,-1.1793,-1.1793,0,-1.1534,-1.155,-1.157,-1.1581,-1.16,-1.1614,-1.1632,-1.1644,-1.1661,-1.1676,-1.1687,-1.1701,-1.172,-1.1737,-1.1749,-1.1771,-1.1777,-1.1784,-1.1787,-1.1783,-1.1782,-1.179,-1.1789,-1.1793,-1.1793,-1.1793,-1.1793,0,-1.154,-1.1554,-1.1575,-1.1597,-1.1603,-1.1616,-1.1635,-1.1648,-1.166,-1.168,-1.1685,-1.1705,-1.1726,-1.1743,-1.1771,-1.1779,-1.1802,-1.1805,-1.1795,-1.1796,-1.1804,-1.1803,-1.1829,-1.1833,-1.182,-1.182,-1.182,0,-1.1548,-1.156,-1.1583,-1.1593,-1.1604,-1.1621,-1.1633,-1.1648,-1.166,-1.1684,-1.1694,-1.1715,-1.1733,-1.1767,-1.1785,-1.1806,-1.181,-1.1818,-1.1813,-1.1809,-1.181,-1.1809,-1.181,-1.1818,-1.1818,-1.1818,-1.1818,0,-1.1561,-1.1567,-1.1583,-1.1602,-1.1616,-1.1632,-1.1648,-1.1657,-1.1675,-1.1688,-1.1709,-1.1723,-1.1751,-1.1773,-1.1797,-1.181,-1.1817,-1.1819,-1.1823,-1.1818,-1.1812,-1.1815,-1.1796,-1.1819,-1.1819,-1.1819,-1.1819,-1.1818,-1.1568,-1.1579,-1.1597,-1.1615,-1.1629,-1.1644,-1.1657,-1.167,-1.1688,-1.1711,-1.1719,-1.1741,-1.1761,-1.1793,-1.1807,-1.1825,-1.1825,-1.183,-1.1831,-1.1832,-1.1831,-1.1809,-1.1829,-1.1829,-1.1829,-1.1829,-1.1829,0,-1.1581,-1.1593,-1.1609,-1.1631,-1.1646,-1.1651,-1.1669,-1.1681,-1.17,-1.1718,-1.1735,-1.176,-1.1781,-1.18,-1.1823,-1.1834,-1.1838,-1.1839,-1.1838,-1.1841,-1.183,-1.1825,-1.1835,-1.1835,-1.1835,-1.1835,-1.1835,-1.1835,-1.1589,-1.1608,-1.1617,-1.1644,-1.1656,-1.1676,-1.1687,-1.1701,-1.1715,-1.1742,-1.1759,-1.1771,-1.179,-1.1814,-1.1834,-1.184,-1.1848,-1.1848,-1.1854,-1.1843,-1.1842,-1.1841,-1.1836,-1.1849,-1.185,-1.1864,-1.1864,-1.1864]},{"header":{"parameterUnit":"m.s-1","parameterCategory":1,"la1":30.2991,"la2":30.254,"lo1":-89.0895,"lo2":-89.0444,"dy":0.0017,"dx":0.0017,"nx":28,"ny":28,"refTime":"2024-02-22T09:00:00:Z","depth":0,"parameterNumber":3,"parameterNumberName":"V-component_of_WINDS"},"data":[0,0,0,0,0,0,0,0,0,0,0,0,0,0,0,0,0,0,0,0,0,0,0,0,0,0,0,0,0,0,0,0,0,0,0,0,0,0,0,0,0,0,0,0,0,0,0,0,0,0,0,0,0,0,0,0,0,0,0.9721,0.9722,0,0.9796,0.9797,0.9798,0.9789,0.9788,0.9787,0.9786,0.9864,0.9867,0.987,0,0,0,0,0,0,0,0,0,0,0,0,0,0.9572,0.9575,0.9721,0.9722,0.9723,0.9796,0.9797,0.9798,0.9789,0.9788,0.9786,0.9785,0.9863,0.9866,0.987,0,0,0,0,0,0,0,0,0,0,0,0,0,0.9641,0.9576,0.9721,0.9728,0.9729,0.9796,0.9797,0.9798,0.979,0.9788,0.9786,0.9784,0.9861,0.9866,0.9871,0.9936,0,0,0.9885,0.9887,0,0,0,0,0,0,0,0,0.9637,0.9647,0.9726,0.9727,0.9729,0.9781,0.9773,0.9845,0.979,0.9767,0.9786,0.9783,0.9838,0.9844,0.9862,0.994,0.9943,0.9886,0.9889,0.9891,0.9892,0,0,0,0,0,0,0,0.9633,0.9643,0.9751,0.9727,0.9729,0.9727,0.9735,0.9787,0.9811,0.9769,0.9768,0.9777,0.9838,0.9858,0.9864,0.9944,0.9886,0.989,0.9893,0.9895,1.008,1.0082,0,0,0,0,0,0,0.9626,0.9639,0.9749,0.9753,0.9678,0.9731,0.974,0.9766,0.9811,0.9816,0.9778,0.9776,0.9851,0.9859,0.9867,0.9947,0.9891,0.9895,0.9898,1.0078,1.008,1.0082,0,0,0,0,0,0,0.9623,0.9636,0.9746,0.9696,0.971,0.9736,0.9765,0.9769,0.9788,0.9818,0.9823,0.9794,0.9849,0.986,0.9919,0.9949,0.9897,0.9902,1.0075,1.0078,1.0081,1.0107,0,0,0,0,0,0,0.9619,0.9635,0.966,0.9697,0.9713,0.9796,0.9767,0.9772,0.9796,0.9794,0.9834,0.9839,0.9849,0.9912,0.9924,0.9955,0.9905,1.0073,1.0077,1.008,1.0103,1.011,1.0116,0,0,0,0,0,0.9613,0.9664,0.9661,0.9674,0.9744,0.9798,0.9807,0.9817,0.9799,0.9824,0.9844,0.9837,0.9944,0.9918,0.9931,0.9964,1.0071,1.0075,1.008,1.01,1.0109,1.0116,0,0,0,0,0,0,0.9631,0.9669,0.9666,0.973,0.9761,0.9796,0.9829,0.9826,0.9863,0.9859,0.9871,0.988,0.9939,0.9958,0.9928,1.003,1.0005,1.0012,1.0016,1.0024,1.0031,1.0025,0.9909,0,0,0,0,0,0.9642,0.9681,0.9713,0.9767,0.9782,0.9803,0.9827,0.9832,0.9864,0.9877,0.9901,0.9932,0.9973,1.0,1.0039,1.0106,1.0115,1.0135,1.0142,1.0147,1.0153,1.019,1.02,1.0097,1.0097,1.0097,0,0,0.9666,0.9692,0.9716,0.9771,0.9795,0.9837,0.9814,0.9859,0.9889,0.9884,0.9941,0.9959,0.9996,1.0059,1.0088,1.0076,1.0183,1.0153,1.0157,1.016,1.0196,1.0206,1.0214,1.01,1.01,1.0099,0,0,0.973,0.9753,0.9801,0.9825,0.9862,0.9875,0.9886,0.9922,0.9934,0.9991,0.9988,1.0025,1.0095,1.0121,1.0143,1.0217,1.0213,1.023,1.0264,1.03,1.0308,1.0315,1.0342,1.0351,1.0236,1.0236,1.0236,0,0.9755,0.9817,0.9826,0.9871,0.9895,0.9891,0.994,0.9963,1.0011,1.0028,1.0014,1.0101,1.0126,1.0195,1.0213,1.0231,1.0245,1.0225,1.0306,1.0313,1.032,1.0346,1.0356,1.0238,1.0238,1.0237,1.0237,0,0.9846,0.9888,0.9922,0.9968,0.9996,1.0043,1.0059,1.0087,1.0089,1.0104,1.0162,1.0191,1.0236,1.0253,1.0256,1.0323,1.0314,1.0303,1.0278,1.0331,1.0356,1.0366,1.024,1.024,1.0239,1.0239,0,0,0.9924,0.9973,0.9985,1.0006,1.0046,1.0079,1.0126,1.0169,1.0193,1.0226,1.0265,1.0324,1.0314,1.0339,1.0345,1.0377,1.0434,1.0361,1.0362,1.0374,1.0509,1.0518,1.0529,1.0431,1.0433,1.0434,1.0506,0,0.9992,1.0074,1.0083,1.0156,1.0195,1.0192,1.0232,1.0262,1.0277,1.0313,1.033,1.0371,1.0354,1.037,1.0401,1.042,1.0461,1.0415,1.0468,1.047,1.046,1.0542,1.0551,1.0618,1.0516,1.0518,1.0519,0,1.0083,1.0118,1.0194,1.0229,1.0246,1.0282,1.0322,1.0357,1.039,1.0399,1.0427,1.0429,1.0477,1.045,1.0517,1.0485,1.0508,1.052,1.0523,1.0529,1.0498,1.055,1.0639,1.065,1.0534,1.0533,1.0531,0,1.0133,1.0199,1.0253,1.0271,1.0312,1.0337,1.0356,1.0387,1.0412,1.0448,1.0464,1.0505,1.0528,1.056,1.0573,1.0552,1.064,1.0613,1.0649,1.0648,1.0668,1.0666,1.0762,1.0681,1.0681,1.0681,1.0681,0,1.0209,1.0256,1.0276,1.0309,1.0362,1.0372,1.0424,1.0442,1.0469,1.0507,1.0506,1.0541,1.0556,1.0594,1.0605,1.0659,1.0669,1.0678,1.068,1.0678,1.0677,1.0694,1.0689,1.0684,1.0683,1.0683,1.0682,0,1.0273,1.0288,1.0347,1.0381,1.0391,1.0428,1.0457,1.049,1.0504,1.0551,1.0563,1.0586,1.063,1.0646,1.07,1.0708,1.0771,1.0769,1.0759,1.076,1.0795,1.0792,1.0905,1.0921,1.0829,1.083,1.083,0,1.0321,1.0357,1.0394,1.0418,1.0438,1.0477,1.0503,1.0514,1.0541,1.0581,1.0609,1.0653,1.0689,1.076,1.0782,1.0823,1.0823,1.086,1.0829,1.0826,1.0824,1.0822,1.0826,1.0865,1.0866,1.0867,1.0868,0,1.0404,1.0409,1.0446,1.0485,1.0516,1.0548,1.0578,1.0599,1.0615,1.0645,1.069,1.0717,1.0772,1.0816,1.0858,1.0878,1.0876,1.0877,1.0888,1.0886,1.0879,1.0884,1.0775,1.0875,1.0874,1.0873,1.0873,1.0873,1.0462,1.0493,1.0525,1.0565,1.059,1.0618,1.0651,1.0669,1.0706,1.0751,1.0755,1.0804,1.0836,1.0893,1.0914,1.0953,1.0943,1.0958,1.0962,1.0966,1.0968,1.0873,1.096,1.096,1.096,1.096,1.096,0,1.0545,1.0565,1.0602,1.0645,1.0677,1.0671,1.0705,1.0732,1.0775,1.0805,1.0839,1.0891,1.0933,1.0958,1.1001,1.1027,1.1027,1.1038,1.1037,1.1041,1.0975,1.0961,1.1037,1.1037,1.1037,1.1037,1.1037,1.1037,1.0592,1.0646,1.0655,1.0721,1.074,1.0787,1.0807,1.0833,1.0857,1.0915,1.095,1.0965,1.0993,1.1038,1.1077,1.1083,1.1099,1.1111,1.1116,1.1054,1.1046,1.1038,1.1026,1.1114,1.1114,1.118,1.1181,1.1181]}]]